Temperature
19 19 19 18 18 17 17 17 17 17 16 16 16 16 15 15 15 15 15 15 15 15 14 15 15 14 14 14 14 14 14 14 14 14 14 14 14 14 14 14 14 14 14
20 19 19 18 18 17 17 17 17 17 16 16 16 16 15 15 15 15 15 15 15 15 15 15 15 15 14 14 14 14 14 14 14 14 14 14 14 14 14 14 14 14 14
20 19 19 19 18 17 17 17 17 17 16 16 16 16 16 15 15 15 15 15 15 15 15 15 15 15 14 14 14 14 14 14 14 14 13 14 14 14 14 14 14 14 14
20 19 19 18 18 17 17 17 17 17 16 16 16 16 16 15 15 15 15 15 15 15 15 15 15 15 14 14 14 14 14 14 14 14 14 14 14 14 14 14 14 14 14
20 19 18 18 18 17 17 17 17 17 17 16 16 16 16 16 16 15 15 15 15 15 15 15 15 15 14 14 14 14 14 14 14 14 14 14 14 14 14 14 14 14 14
19 19 18 18 17 17 17 17 17 17 17 17 17 17 16 16 16 16 15 15 15 15 15 15 15 15 14 14 14 14 14 14 14 14 14 14 14 14 14 14 14 14 14
19 18 17 17 17 17 17 17 17 17 17 17 17 17 17 16 16 16 15 15 15 15 15 15 15 15 14 14 14 14 14 14 14 14 14 14 14 14 14 14 14 14 14
19 18 17 17 17 17 17 17 17 17 17 17 17 17 17 17 16 16 16 15 15 15 15 15 15 15 15 14 14 14 14 14 14 14 14 14 14 14 14 14 14 14 14
18 17 16 16 16 16 16 16 17 17 17 17 17 17 17 17 17 16 16 16 16 16 16 16 15 15 15 15 14 14 14 14 14 14 14 14 14 14 14 14 14 14 14
17 17 16 16 16 16 16 16 17 17 17 17 17 17 17 17 17 16 16 16 16 16 16 16 15 15 15 15 14 14 14 14 14 14 14 14 14 14 14 14 14 14 14
17 16 16 16 16 16 16 16 17 17 17 17 17 18 17 17 17 17 16 16 16 16 16 16 15 15 15 15 14 14 14 14 14 14 14 14 14 14 14 14 14 14 14
16 16 16 16 16 16 16 16 17 17 17 17 18 18 18 17 17 17 16 16 16 16 16 16 15 15 15 15 14 14 14 14 14 14 14 14 14 14 14 14 14 14 14
17 16 16 16 16 16 16 16 16 17 17 17 17 17 17 17 17 17 17 16 16 16 16 16 15 15 15 15 14 14 14 14 14 14 13 13 13 14 14 14 14 14 14
17 16 16 16 16 16 16 16 16 17 17 17 18 18 18 18 17 17 17 17 16 16 16 16 15 15 15 15 14 14 14 14 13 13 13 13 13 13 13 14 14 14 13
16 16 16 16 16 16 16 16 16 16 17 17 17 17 17 17 17 17 17 16 16 16 16 16 15 15 15 15 14 14 14 13 13 13 13 13 13 13 13 13 13 13 13
17 16 16 16 15 15 15 15 16 16 16 16 16 17 17 17 17 17 17 16 16 16 16 15 15 15 15 14 14 14 14 13 13 13 13 13 13 13 13 13 13 13 13
17 16 16 16 15 15 15 15 15 15 16 16 16 16 16 17 17 16 16 16 16 16 16 15 15 15 14 14 14 14 13 13 13 13 13 13 13 13 13 13 13 12 12
17 16 16 16 15 15 15 15 15 15 15 15 15 16 16 16 16 16 16 16 16 15 15 15 15 14 14 14 14 13 13 13 13 13 13 13 13 13 12 12 12 12 12
17 17 16 16 16 15 15 15 15 15 15 15 15 15 15 15 15 15 15 15 15 15 15 14 14 14 14 13 13 13 12 12 12 12 12 12 12 12 12 12 12 12 12
17 16 16 16 16 15 15 15 15 15 15 14 14 15 15 15 15 15 15 15 14 14 14 14 14 13 13 13 12 12 12 12 12 12 12 12 12 12 12 12 12 11 11
17 16 16 16 16 15 15 15 15 15 15 14 14 14 14 14 14 14 14 14 14 14 14 14 13 13 13 12 12 11 11 11 12 12 12 12 12 12 12 11 11 11 11
17 16 16 16 16 15 15 15 15 15 15 15 14 14 14 14 14 14 14 14 14 13 13 13 13 12 12 12 11 11 11 11 12 12 12 12 12 12 11 11 11 11 10
16 16 16 16 15 15 15 15 14 14 14 14 14 14 14 14 14 14 14 14 13 13 13 13 12 12 12 12 11 11 11 11 12 12 12 12 12 12 11 11 11 10 10
16 16 15 15 15 15 15 15 14 14 14 14 15 14 14 14 14 14 13 13 13 13 13 12 12 12 12 11 11 11 11 11 11 11 11 12 11 11 11 11 10 10 9
15 15 15 15 15 15 15 14 14 14 14 14 14 14 14 14 14 13 13 13 13 13 12 12 12 12 11 11 11 11 11 10 10 10 10 11 11 11 11 10 10 9 9
14 14 14 14 14 14 14 14 14 14 14 14 14 14 14 14 13 13 13 13 12 12 12 12 12 11 11 11 11 11 11 10 10 10 10 10 10 10 10 9 9 9 8
Wind_Speed
9 16 22 21 20 20 19 19 18 17 17 17 16 16 15 15 14 13 13 13 13 14 15 15 15 15 16 16 16 17 16 16 16 15 15 15 15 15 14 13 12 12 13
12 19 23 22 21 20 20 19 18 18 17 16 16 15 15 14 13 13 13 13 14 14 15 15 15 15 15 16 15 15 15 15 14 14 14 14 14 14 14 13 12 11 12
15 19 22 22 22 21 20 20 19 18 17 16 15 15 14 13 13 13 13 14 14 15 15 15 15 15 15 15 15 14 14 12 11 10 10 10 11 13 13 13 12 13 13
18 18 20 22 22 21 21 20 19 18 17 16 15 14 14 13 13 13 13 14 14 15 15 15 15 14 14 14 13 13 12 11 10 9 8 8 9 12 13 13 13 14 14
15 17 20 23 22 22 21 20 19 18 17 16 15 14 13 13 13 13 14 15 15 15 15 14 14 13 12 12 12 12 12 12 12 12 11 11 11 13 14 15 15 15 15
11 16 20 22 22 22 21 20 19 18 17 16 15 14 13 13 14 15 16 15 15 15 14 14 13 12 11 11 11 12 13 14 14 14 12 12 12 14 16 16 16 15 15
12 16 20 22 22 22 21 19 18 18 17 16 15 14 14 14 15 16 16 15 15 14 14 13 11 10 10 10 11 12 13 14 14 13 12 11 13 14 14 14 14 14 14
14 15 19 22 22 21 20 19 18 17 17 16 14 14 14 15 16 16 16 15 15 14 13 12 11 10 9 8 9 11 12 13 13 13 12 12 13 13 12 12 12 12 12
14 13 15 19 20 21 20 19 19 18 17 15 14 14 15 15 16 16 15 15 14 13 12 11 10 9 8 7 7 9 11 12 13 12 11 11 12 12 11 11 11 11 11
12 11 12 15 17 18 19 20 20 19 17 16 15 15 16 16 16 15 15 14 14 13 12 11 10 9 7 6 6 8 10 11 11 11 11 11 11 10 10 10 10 10 10
12 11 11 11 14 15 16 18 19 18 17 17 16 16 15 14 14 13 14 15 13 12 11 10 9 8 7 5 5 7 8 9 11 11 11 11 11 10 10 9 9 9 9
13 12 10 10 12 14 14 15 15 15 15 15 15 15 14 13 13 12 14 14 13 12 11 10 9 8 6 5 4 5 7 8 9 10 11 12 11 10 9 9 9 9 9
13 12 11 10 12 12 10 12 11 12 13 14 16 16 14 13 11 11 11 12 12 11 9 9 8 7 7 6 5 5 7 8 9 10 11 13 12 10 10 9 9 9 8
12 12 11 11 10 11 12 11 11 10 10 11 14 16 13 9 9 10 10 11 11 10 9 8 8 8 8 8 7 6 7 9 11 11 13 14 13 12 11 10 9 9 9
11 12 12 11 11 10 10 9 10 10 11 13 14 15 15 10 7 9 9 11 12 12 10 9 8 8 7 8 8 8 8 10 13 13 14 16 15 13 12 11 11 10 10
11 11 11 11 12 11 9 7 9 11 13 13 14 16 17 14 11 10 8 10 11 13 12 11 10 8 7 7 6 8 9 11 13 14 14 16 16 16 14 13 12 12 11
10 10 10 11 11 12 11 9 10 12 13 12 13 17 18 17 15 12 8 8 11 14 13 11 9 7 5 5 5 7 8 11 13 14 15 16 16 17 16 15 14 13 13
9 9 9 9 10 11 9 8 8 11 12 11 14 15 17 18 17 14 8 8 13 14 11 6 4 5 5 5 4 4 5 8 11 14 15 16 16 16 17 17 16 15 14
9 9 9 8 9 9 8 7 7 9 9 11 13 13 15 17 18 15 10 10 14 10 8 6 6 5 5 5 5 4 4 4 7 11 12 15 17 18 18 18 18 18 17
8 9 9 8 8 7 6 5 4 5 5 8 10 12 15 15 16 15 10 10 12 6 7 6 6 5 5 5 4 4 4 4 5 6 10 13 16 18 19 19 18 18 19
6 7 8 7 7 6 4 5 5 5 4 4 5 10 12 13 14 12 7 8 8 8 9 8 6 6 5 3 2 2 3 4 6 6 7 8 11 16 17 18 18 17 17
6 6 7 7 7 6 5 5 3 3 3 4 4 7 10 11 12 11 8 8 8 8 8 9 7 5 5 5 4 2 3 4 5 6 6 7 8 11 13 16 17 18 18
5 5 6 6 6 5 5 3 2 2 1 2 4 4 6 9 10 10 10 8 8 9 9 10 9 9 7 6 5 5 4 7 4 3 4 5 5 5 6 10 13 16 16
4 3 4 4 4 4 4 5 6 6 6 5 4 4 4 6 7 9 9 9 8 8 9 10 10 9 8 7 5 5 5 4 4 3 3 3 4 5 5 6 9 11 13
3 3 3 4 3 2 3 5 6 5 5 3 2 3 4 3 4 6 7 6 7 8 9 9 9 10 9 9 7 5 6 4 4 4 5 3 2 3 3 4 5 8 11
4 3 3 4 3 2 3 3 4 5 4 2 2 3 3 3 3 4 5 4 5 6 7 8 9 9 9 9 8 7 6 5 6 7 9 6 4 2 2 2 3 4 7
Wind_Direction
156 160 155 152 148 146 144 141 138 134 129 125 121 118 116 114 113 112 112 109 104 103 99 95 92 92 92 92 91 90 88 86 86 84 81 80 84 89 88 85 81 78 79
148 157 154 151 148 147 145 142 139 136 133 130 127 124 122 120 118 117 116 113 108 105 101 98 94 93 95 93 92 92 91 89 88 86 82 82 84 87 88 86 86 85 83
145 154 153 150 147 146 144 141 139 137 134 132 129 127 126 125 123 120 119 116 111 107 104 101 98 97 97 96 94 93 93 91 90 89 84 84 90 93 91 89 88 85 85
146 151 153 149 147 145 143 142 140 138 136 134 131 130 129 128 127 125 124 119 114 111 108 106 103 101 100 97 93 91 91 91 91 95 85 82 90 94 93 90 87 85 82
142 148 153 149 146 145 143 142 140 139 136 134 133 133 132 132 131 129 127 123 119 116 113 111 109 106 103 97 92 89 89 92 95 96 90 85 89 92 90 86 84 83 82
135 144 152 149 147 145 144 143 142 140 138 136 134 135 135 135 134 131 129 126 124 122 120 117 114 111 105 96 90 91 92 96 99 97 93 89 89 92 89 86 84 83 82
137 145 153 149 148 147 146 145 144 142 141 139 138 138 139 139 137 134 133 133 131 129 127 125 122 118 111 99 92 94 98 101 105 101 96 93 95 94 92 90 88 86 85
142 147 154 151 149 149 149 148 147 145 143 142 142 142 142 142 141 140 139 139 137 136 136 135 133 128 120 109 100 100 107 107 110 106 102 100 101 98 96 94 93 90 89
143 145 150 152 152 152 152 151 149 147 146 145 145 145 144 144 145 145 145 145 144 143 142 143 143 140 134 123 111 109 115 117 119 116 113 110 109 105 103 101 99 96 94
144 147 149 152 154 154 154 153 152 150 149 147 145 144 146 146 149 150 151 151 150 150 150 151 153 154 151 141 127 123 124 128 131 130 129 127 123 117 114 111 108 105 102
151 153 153 153 155 154 155 157 154 153 153 149 148 148 147 149 152 155 157 157 156 157 159 161 165 168 169 165 151 141 135 141 146 144 145 142 137 132 128 125 120 116 113
160 163 161 159 158 156 157 155 155 155 156 155 156 155 155 157 159 162 163 163 163 165 167 171 175 179 185 193 187 162 150 155 160 160 160 156 150 146 143 139 135 130 126
165 166 168 166 163 161 154 157 160 160 162 165 167 167 165 165 167 167 167 170 171 171 173 179 181 191 203 216 218 195 175 176 179 176 173 168 162 159 157 154 152 147 142
167 171 172 170 167 166 161 166 167 166 170 174 181 179 172 170 172 174 176 178 178 180 183 188 193 207 221 234 234 217 195 190 188 185 183 177 173 170 170 168 167 163 159
170 173 173 172 170 170 168 173 176 179 182 185 189 191 184 178 179 182 185 186 189 191 194 199 206 215 228 239 238 223 207 195 190 186 186 183 181 179 179 180 180 179 175
175 173 172 172 171 172 174 176 181 187 188 189 193 196 194 189 186 187 189 193 198 201 204 206 211 214 222 226 229 223 209 196 193 190 189 189 188 186 188 190 191 191 189
179 175 175 175 171 173 178 182 185 189 190 192 198 201 198 195 193 191 192 198 204 207 208 211 217 218 221 221 221 216 205 197 195 194 193 193 194 194 196 199 199 199 199
176 175 178 179 175 177 180 183 185 190 190 193 198 201 202 199 197 194 196 202 204 205 204 202 203 210 222 220 219 217 204 198 199 199 198 198 197 199 204 206 206 206 207
177 175 178 178 179 182 181 182 184 188 192 196 198 199 203 202 200 198 201 203 200 200 202 206 205 200 213 221 222 221 214 204 203 203 203 205 204 204 205 209 209 210 210
178 176 179 181 183 182 178 176 179 190 195 197 200 203 203 204 202 200 203 203 197 198 204 203 203 205 206 205 217 229 233 230 214 208 209 210 211 211 209 208 209 211 211
170 173 180 182 185 176 175 181 187 199 200 201 204 207 208 209 206 203 205 201 199 206 209 204 199 206 212 175 178 267 289 255 236 227 215 211 214 214 214 212 210 207 210
177 176 175 183 184 185 188 186 185 184 199 204 204 210 212 213 213 212 209 210 207 210 212 208 201 201 205 180 173 186 270 293 258 230 217 218 218 212 213 214 212 209 208
170 178 177 178 180 185 184 169 149 146 171 201 215 219 220 219 218 218 218 214 213 212 218 216 208 205 213 207 194 178 195 230 264 274 238 227 215 210 215 213 213 212 210
165 160 159 161 164 176 173 172 178 192 208 217 220 226 236 231 231 229 225 219 218 219 222 220 214 212 207 213 217 222 213 181 197 258 273 241 217 215 214 211 209 210 208
128 122 121 122 129 148 158 174 184 201 216 223 222 229 237 243 241 240 235 228 226 223 225 223 217 214 214 216 208 203 219 221 209 217 256 257 249 230 219 214 204 201 202
101 98 100 107 102 108 135 150 172 191 200 202 221 232 243 246 247 252 249 240 235 231 228 227 224 219 221 220 218 209 199 198 204 212 235 235 230 226 210 207 201 195 193
Height
1526 1530 1533 1537 1540 1542 1545 1547 1548 1550 1552 1553 1554 1554 1555 1555 1555 1555 1555 1555 1556 1556 1556 1556 1555 1556 1556 1556 1557 1557 1558 1558 1558 1558 1559 1559 1560 1560 1559 1559 1559 1559 1558
1525 1530 1533 1537 1540 1543 1545 1547 1549 1551 1552 1553 1554 1555 1555 1555 1556 1556 1556 1557 1557 1557 1557 1557 1557 1557 1557 1558 1558 1559 1559 1559 1560 1560 1561 1561 1561 1561 1561 1561 1561 1560 1560
1527 1530 1533 1537 1540 1543 1545 1547 1549 1551 1552 1553 1554 1555 1555 1556 1556 1557 1557 1558 1558 1559 1558 1558 1558 1559 1559 1559 1560 1560 1561 1561 1561 1562 1562 1563 1563 1563 1563 1563 1563 1562 1562
1528 1531 1534 1537 1540 1543 1546 1548 1550 1551 1553 1554 1555 1555 1556 1556 1557 1557 1558 1559 1560 1560 1560 1560 1560 1561 1561 1561 1562 1562 1562 1563 1563 1564 1564 1564 1564 1565 1565 1564 1564 1564 1564
1529 1531 1534 1538 1541 1543 1546 1548 1550 1551 1553 1554 1555 1555 1556 1557 1557 1558 1559 1560 1561 1561 1562 1562 1562 1563 1563 1563 1564 1564 1564 1565 1565 1566 1566 1566 1566 1566 1566 1566 1566 1566 1566
1529 1532 1535 1538 1541 1544 1546 1548 1550 1551 1553 1554 1555 1556 1556 1557 1558 1559 1560 1561 1562 1563 1563 1564 1564 1565 1565 1565 1566 1566 1566 1567 1567 1567 1568 1568 1568 1568 1568 1568 1567 1567 1567
1528 1532 1535 1539 1541 1544 1546 1548 1550 1551 1553 1554 1555 1556 1557 1557 1558 1560 1561 1562 1563 1564 1565 1565 1566 1566 1567 1567 1568 1568 1568 1568 1569 1569 1569 1570 1569 1569 1569 1569 1568 1568 1567
1529 1532 1536 1539 1542 1544 1546 1548 1550 1551 1553 1554 1555 1556 1557 1558 1559 1560 1562 1563 1564 1565 1566 1567 1567 1568 1568 1569 1569 1569 1569 1570 1570 1570 1570 1570 1570 1570 1569 1569 1568 1568 1567
1529 1532 1536 1539 1542 1544 1546 1548 1550 1551 1552 1554 1555 1556 1557 1559 1560 1561 1562 1563 1565 1566 1567 1568 1568 1569 1570 1570 1570 1570 1571 1571 1571 1571 1571 1571 1571 1570 1570 1569 1568 1568 1567
1530 1533 1536 1538 1541 1543 1546 1548 1549 1551 1552 1554 1555 1556 1558 1559 1560 1562 1563 1564 1565 1566 1567 1568 1569 1570 1570 1571 1571 1571 1571 1571 1572 1572 1571 1571 1571 1570 1570 1569 1568 1567 1567
1530 1533 1535 1538 1540 1543 1545 1547 1549 1550 1552 1553 1555 1556 1558 1559 1560 1562 1563 1564 1565 1566 1567 1568 1569 1570 1571 1571 1571 1571 1571 1572 1572 1572 1572 1571 1571 1570 1570 1569 1568 1567 1567
1529 1532 1535 1537 1540 1542 1544 1546 1548 1550 1551 1553 1554 1556 1557 1559 1560 1561 1563 1564 1565 1566 1567 1568 1569 1570 1571 1571 1571 1571 1571 1571 1572 1572 1571 1571 1571 1570 1569 1569 1568 1567 1567
1529 1531 1534 1536 1539 1541 1543 1545 1547 1549 1550 1552 1553 1555 1556 1558 1559 1561 1562 1563 1564 1566 1567 1568 1568 1569 1570 1571 1571 1571 1571 1571 1571 1571 1571 1571 1571 1570 1569 1569 1568 1567 1566
1528 1530 1533 1535 1537 1540 1542 1544 1546 1548 1549 1551 1552 1554 1555 1557 1558 1560 1561 1562 1564 1565 1566 1567 1568 1568 1569 1570 1570 1570 1570 1570 1570 1570 1570 1570 1570 1569 1569 1568 1567 1567 1566
1526 1529 1531 1534 1536 1538 1541 1543 1544 1546 1548 1549 1551 1552 1554 1555 1557 1558 1560 1561 1562 1563 1564 1565 1566 1567 1568 1568 1568 1568 1568 1569 1569 1569 1569 1569 1569 1568 1568 1567 1567 1566 1565
1525 1527 1530 1532 1534 1537 1539 1541 1543 1545 1546 1548 1549 1550 1552 1553 1555 1556 1558 1559 1560 1561 1563 1564 1564 1565 1566 1566 1566 1566 1566 1567 1567 1567 1567 1567 1567 1566 1566 1566 1565 1565 1564
1523 1525 1528 1530 1533 1535 1537 1539 1541 1543 1544 1546 1547 1549 1550 1551 1553 1554 1555 1557 1558 1559 1560 1561 1562 1562 1563 1563 1563 1564 1564 1564 1564 1564 1565 1565 1565 1564 1564 1564 1563 1563 1562
1521 1523 1526 1528 1530 1532 1535 1537 1539 1540 1542 1543 1545 1546 1548 1549 1550 1552 1553 1554 1555 1556 1557 1558 1559 1559 1560 1560 1560 1561 1561 1561 1561 1562 1562 1562 1562 1562 1562 1561 1561 1561 1560
1518 1521 1523 1525 1528 1530 1532 1534 1536 1538 1539 1541 1542 1543 1545 1546 1547 1548 1549 1551 1552 1553 1554 1554 1555 1556 1556 1557 1557 1558 1558 1558 1558 1558 1558 1558 1558 1558 1558 1558 1558 1558 1558
1516 1518 1520 1522 1525 1527 1530 1532 1533 1535 1536 1537 1539 1540 1542 1543 1544 1545 1546 1547 1548 1549 1550 1550 1551 1552 1552 1553 1554 1554 1554 1554 1554 1554 1554 1554 1554 1554 1554 1554 1554 1554 1554
1512 1514 1516 1519 1521 1523 1525 1527 1529 1530 1532 1534 1535 1537 1538 1539 1540 1541 1542 1543 1544 1544 1545 1546 1547 1548 1548 1549 1550 1550 1549 1549 1549 1549 1549 1549 1549 1549 1549 1549 1549 1549 1550
1508 1510 1512 1515 1517 1519 1521 1523 1525 1527 1528 1530 1531 1533 1534 1535 1536 1537 1538 1538 1539 1540 1541 1542 1542 1543 1543 1545 1545 1545 1544 1544 1542 1543 1543 1543 1543 1543 1543 1543 1544 1544 1544
1504 1506 1508 1510 1512 1514 1517 1519 1521 1523 1524 1525 1526 1527 1529 1530 1531 1532 1533 1534 1534 1535 1535 1536 1537 1538 1538 1539 1540 1541 1539 1536 1537 1536 1536 1536 1536 1537 1537 1537 1537 1538 1538
1500 1503 1505 1507 1508 1510 1512 1514 1516 1517 1518 1519 1521 1523 1524 1525 1526 1527 1527 1528 1529 1529 1530 1530 1531 1532 1533 1533 1534 1534 1534 1533 1533 1530 1531 1531 1531 1530 1531 1531 1531 1531 1532
1497 1499 1501 1503 1505 1506 1508 1509 1511 1512 1514 1515 1517 1518 1519 1520 1520 1521 1522 1522 1523 1523 1524 1524 1525 1526 1526 1526 1527 1527 1527 1527 1526 1526 1524 1524 1525 1525 1525 1525 1525 1525 1525
1493 1495 1497 1499 1501 1502 1503 1505 1506 1507 1509 1510 1511 1512 1513 1514 1514 1515 1515 1516 1516 1517 1517 1518 1518 1519 1519 1520 1520 1520 1520 1520 1519 1519 1518 1517 1517 1518 1518 1518 1517 1517 1517